Daytona Beach, FL

7:59 PM EST on November 18, 2018 (GMT -0500)
Daytona Beach International

Weather History for KDAB - February, 2018

Change the Weather History Date:

Wednesday, February 14, 2018

  Actual Average Record
Temperature  
Mean Temperature 61 °F 60 °F  
Max Temperature 65 °F 71 °F 89 °F (1935)
Min Temperature 56 °F 50 °F 28 °F (1958)
Degree Days  
Heating Degree Days 4 6  
Month to date heating degree days 21 93  
Since 1 July heating degree days 497 610  
Cooling Degree Days 0 1  
Month to date cooling degree days 45 14  
Year to date cooling degree days 72 43  
Growing Degree Days 10 (Base 50)    
Moisture  
Dew Point 59 °F    
Average Humidity 94    
Maximum Humidity 100    
Minimum Humidity 87    
Precipitation  
Precipitation 0.00 in 0.10 in 1.58 in (1947)
Month to date precipitation 0.34 1.34  
Year to date precipitation 6.80 4.08  
Sea Level Pressure  
Sea Level Pressure 30.41 in    
Wind  
Wind Speed 7 mph (North)    
Max Wind Speed 17 mph    
Max Gust Speed 20 mph    
Visibility 2 miles    
Events Fog    
T = Trace of Precipitation, MM = Missing Value Source: NWS Daily Summary

Daily Weather History Graph

Daily Weather History Graph

Search for Another Location

Airport or City:

Astronomy

Feb. 14, 2018 Rise Set
Actual Time 7:03 AM EST 6:13 PM EST
Civil Twilight 6:39 AM EST 6:37 PM EST
Nautical Twilight 6:11 AM EST 7:05 PM EST
Astronomical Twilight 5:44 AM EST 7:33 PM EST
Moon 6:16 AM EST (2/14) 5:19 PM EST (2/14)
Length of Visible Light 11h 57m
Length of Day
11h 09m
Waning Crescent, 1% of the Moon is Illuminated
Feb 14
Waning Crescent
Feb 15
New
Feb 23
First Quarter
Mar 1
Full
Mar 9
Last Quarter

Hourly Weather History & Observations

Time (EST) Temp. Dew Point Humidity Pressure Visibility Wind Dir Wind Speed Gust Speed Precip Events Conditions
12:53 AM 59.0 °F 59.0 °F 100% 30.44 in 0.5 mi North 6.9 mph - N/A Fog Fog
1:53 AM 59.0 °F 59.0 °F 100% 30.43 in 0.5 mi North 10.4 mph - N/A Fog Fog
2:53 AM 57.9 °F 57.9 °F 100% 30.42 in 0.5 mi NNW 5.8 mph - N/A Fog Fog
3:53 AM 57.9 °F 57.9 °F 100% 30.41 in 0.5 mi NNW 6.9 mph - N/A Fog Fog
4:53 AM 57.9 °F 57.9 °F 100% 30.41 in 0.5 mi North 8.1 mph - N/A Fog Fog
5:53 AM 57.9 °F 57.9 °F 100% 30.41 in 0.5 mi North 9.2 mph - N/A Fog Fog
6:53 AM 57.9 °F 57.9 °F 100% 30.43 in 0.5 mi North 6.9 mph - N/A Fog Fog
7:45 AM 57.0 °F 57.0 °F 100% 30.43 in 0.2 mi North 9.2 mph - N/A Fog Fog
7:53 AM 57.0 °F 57.0 °F 100% 30.44 in 0.2 mi NNW 6.9 mph - N/A Fog Fog
8:53 AM 57.0 °F 57.0 °F 100% 30.43 in 0.2 mi North 3.5 mph - N/A Fog Fog
9:41 AM 57.9 °F 57.9 °F 100% 30.45 in 0.5 mi NW 9.2 mph - N/A Fog Fog
9:53 AM 59.0 °F 59.0 °F 100% 30.45 in 0.5 mi NNW 8.1 mph - N/A Fog Fog
10:07 AM 59.0 °F 59.0 °F 100% 30.46 in 1.0 mi NW 6.9 mph - N/A   Overcast
10:36 AM 59.0 °F 59.0 °F 100% 30.45 in 2.0 mi NNW 6.9 mph - N/A   Overcast
10:53 AM 59.0 °F 59.0 °F 100% 30.45 in 2.0 mi NNW 5.8 mph - N/A   Overcast
11:53 AM 61.0 °F 61.0 °F 100% 30.44 in 2.0 mi NW 8.1 mph - N/A   Overcast
12:28 PM 63.0 °F 62.1 °F 97% 30.43 in 2.0 mi North 5.8 mph - N/A   Overcast
12:30 PM 63.0 °F 62.1 °F 97% 30.43 in 9.0 mi NNW 5.8 mph - N/A   Overcast
12:53 PM 64.0 °F 62.1 °F 93% 30.42 in 9.0 mi North 9.2 mph - N/A   Overcast
1:53 PM 64.9 °F 61.0 °F 87% 30.40 in 10.0 mi North 9.2 mph - N/A   Overcast
2:13 PM 64.9 °F 61.0 °F 87% 30.41 in 10.0 mi NNE 11.5 mph - N/A   Overcast
2:37 PM 63.0 °F 60.1 °F 90% 30.41 in 10.0 mi North 12.7 mph - N/A   Overcast
2:53 PM 62.1 °F 60.1 °F 93% 30.40 in 10.0 mi North 10.4 mph - N/A   Overcast
3:18 PM 60.1 °F 59.0 °F 96% 30.39 in 2.0 mi North 12.7 mph - N/A   Overcast
3:43 PM 60.1 °F 57.2 °F 90% 30.39 in 1.0 mi NNE 9.2 mph - N/A   Overcast
3:53 PM 60.1 °F 57.0 °F 90% 30.38 in 1.0 mi NNE 10.4 mph - N/A   Overcast
4:53 PM 57.9 °F 57.9 °F 100% 30.37 in 1.0 mi NE 11.5 mph - N/A   Overcast
5:11 PM 57.0 °F 57.0 °F 100% 30.37 in 1.0 mi NNE 11.5 mph - N/A   Overcast
5:53 PM 55.9 °F 55.9 °F 100% 30.37 in 0.2 mi North 11.5 mph - N/A Fog Fog
6:53 PM 57.0 °F 57.0 °F 100% 30.38 in 0.2 mi North 6.9 mph - N/A Fog Fog
7:53 PM 57.0 °F 57.0 °F 100% 30.38 in 0.2 mi North 5.8 mph - N/A Fog Fog
8:53 PM 57.9 °F 57.9 °F 100% 30.37 in 0.2 mi North 4.6 mph - N/A Fog Fog
9:53 PM 57.9 °F 57.9 °F 100% 30.38 in 0.1 mi NW 4.6 mph - N/A Fog Fog
10:53 PM 57.9 °F 57.9 °F 100% 30.36 in 0.1 mi NNW 4.6 mph - N/A Fog Fog
11:53 PM 57.9 °F 57.9 °F 100% 30.35 in 0.1 mi Calm Calm - N/A Fog Fog